Simultaneous Nadir Overpasses (SNOs) Predictions

Prediction of SNOs between NOAA-15 and METOP-C Satellite Orbit:

Table of predicted SNOs for the next 14.0 days since TLE Epoch: 2/19/2022
Index Date (NOAA-15) Time (NOAA-15) Lat,Lon (NOAA-15) SZA (NOAA-15 ) Date (METOP-C) Time (METOP-C) Lat,Lon (METOP-C) SZA (METOP-C ) Distance(km) Time Diff (sec)
1 02/22/2022 02:14:00 81.05,-175.46 92.81 02/22/2022 02:12:49 81.04,-175.34 92.79 2.12 71
2 02/22/2022 03:04:31 -81.04, -7.99 87.20 02/22/2022 03:03:31 -81.04, -8.00 87.22 0.24 60
3 02/22/2022 03:55:02 81.05, 159.28 92.78 02/22/2022 03:54:11 81.04, 159.16 92.75 2.35 51
4 02/22/2022 04:45:33 -81.04, -33.26 87.23 02/22/2022 04:44:52 -81.05, -33.13 87.22 2.45 41
5 02/22/2022 05:36:04 81.05, 134.02 92.76 02/22/2022 05:35:32 81.05, 134.03 92.75 0.25 32
6 02/22/2022 06:26:35 -81.04, -58.52 87.25 02/22/2022 06:26:14 -81.05, -58.63 87.27 1.90 21
7 02/22/2022 07:17:06 81.05, 108.76 92.73 02/22/2022 07:16:53 81.05, 108.90 92.75 2.57 13
8 02/22/2022 08:07:37 -81.04, -83.78 87.28 02/22/2022 08:07:35 -81.05, -83.76 87.27 1.36 2
9 02/22/2022 08:58:08 81.05, 83.50 92.71 02/22/2022 08:58:15 81.05, 83.40 92.70 1.71 7
10 02/22/2022 09:48:40 -81.06,-109.42 87.32 02/22/2022 09:48:57 -81.05,-109.26 87.31 3.08 17
11 02/22/2022 10:39:10 81.05, 58.24 92.68 02/22/2022 10:39:36 81.06, 58.27 92.70 1.13 26
12 02/22/2022 11:29:41 -81.04,-134.31 87.33 02/22/2022 11:30:18 -81.06,-134.38 87.31 1.90 37
13 02/22/2022 12:20:13 81.06, 32.61 92.64 02/22/2022 12:20:58 81.05, 32.77 92.66 3.17 45
14 02/22/2022 13:10:44 -81.06,-159.95 87.38 02/22/2022 13:11:40 -81.05,-159.88 87.36 1.54 56
15 02/22/2022 14:01:14 81.05, 7.72 92.63 02/22/2022 14:02:19 81.06, 7.64 92.66 1.79 65



Historial Predications of SNOs between NOAA-15 and METOP-C
